Concordia, KS

2:09 AM CST on November 25, 2017 (GMT -0600)
Blosser Municipal

Weather History for KCNK - March, 2013

Change the Weather History Date:

Friday, March 22, 2013

  Actual Average Record
Temperature  
Mean Temperature 34 °F 45 °F  
Max Temperature 40 °F 57 °F 89 °F (1910)
Min Temperature 27 °F 33 °F 9 °F (2002)
Degree Days  
Heating Degree Days 31 20  
Month to date heating degree days 604 519  
Since 1 July heating degree days 4623 4726  
Cooling Degree Days 0 0  
Month to date cooling degree days 0 0  
Year to date cooling degree days 0 0  
Moisture  
Dew Point 27 °F    
Average Humidity 78    
Maximum Humidity 92    
Minimum Humidity 64    
Precipitation  
Precipitation 0.01 in 0.08 in 2.04 in (1979)
Month to date precipitation 0.48 1.30  
Year to date precipitation 1.96 2.67  
Snow  
Snow 0.40 in 0.10 in 3.40 in (1952)
Month to date snowfall 2.4 1.8  
Year to date snowfall 16.0 12.2  
Since 1 July snowfall 24.5 18.7  
Snow Depth T in    
Sea Level Pressure  
Sea Level Pressure 29.96 in    
Wind  
Wind Speed 6 mph (East)    
Max Wind Speed 15 mph    
Max Gust Speed 17 mph    
Visibility 3 miles    
Events Snow    
T = Trace of Precipitation, MM = Missing Value Source: NWS Daily Summary

Daily Weather History Graph

Daily Weather History Graph

Search for Another Location

Airport or City:

Trip Planner

Search our weather history database for the weather conditions in past years. The results will help you decide how hot, cold, wet, or windy it might be!

Date:

Astronomy

Mar. 22, 2013 Rise Set
Actual Time 7:30 AM CDT 7:44 PM CDT
Civil Twilight 7:03 AM CDT 8:11 PM CDT
Nautical Twilight 6:32 AM CDT 8:43 PM CDT
Astronomical Twilight 6:00 AM CDT 9:15 PM CDT
Moon 3:14 PM CDT (3/22) 4:30 AM CDT (3/22)
Length of Visible Light 13h 08m
Length of Day
12h 14m
Waxing Gibbous, 77% of the Moon is Illuminated
Mar 22
Waxing Gibbous
Mar 27
Full
Apr 2
Last Quarter
Apr 10
New
Apr 18
First Quarter

Hourly Weather History & Observations

Time (CDT) Temp. Windchill Dew Point Humidity Pressure Visibility Wind Dir Wind Speed Gust Speed Precip Events Conditions
12:14 AM 28.4 °F 19.1 °F 26.6 °F 93% 29.91 in 2.5 mi ENE 10.4 mph - N/A   Overcast
12:55 AM 28.9 °F 20.4 °F 26.1 °F 89% 29.96 in 2.0 mi ENE 9.2 mph - N/A   Overcast
1:41 AM 28.4 °F 20.4 °F 26.6 °F 93% 29.94 in 1.5 mi East 8.1 mph - N/A Snow Light Snow
1:51 AM 28.4 °F 19.7 °F 26.6 °F 93% 29.94 in 1.2 mi East 9.2 mph - 0.00 in Snow Light Snow
1:55 AM 28.0 °F 20.8 °F 26.1 °F 92% 29.97 in 1.2 mi East 6.9 mph - 0.00 in Snow Light Snow
2:47 AM 28.4 °F 19.7 °F 26.6 °F 93% 29.93 in 1.0 mi East 9.2 mph - 0.01 in Snow Light Snow
2:55 AM 28.0 °F 20.0 °F 26.1 °F 92% 29.96 in 1.0 mi East 8.1 mph - 0.01 in Snow Light Snow
3:08 AM 28.4 °F 21.2 °F 24.8 °F 86% 29.93 in 1.2 mi East 6.9 mph - 0.00 in Snow Light Snow
3:14 AM 28.4 °F 22.2 °F 26.6 °F 93% 29.93 in 1.5 mi East 5.8 mph - 0.00 in Snow Light Snow
3:35 AM 28.4 °F 21.2 °F 26.6 °F 93% 29.93 in 1.2 mi East 6.9 mph - 0.00 in Snow Light Snow
3:38 AM 28.4 °F 21.2 °F 24.8 °F 86% 29.93 in 1.5 mi East 6.9 mph - 0.00 in Snow Light Snow
3:48 AM 28.4 °F 23.3 °F 24.8 °F 86% 29.93 in 1.8 mi East 4.6 mph - 0.00 in Snow Light Snow
3:55 AM 28.0 °F 21.7 °F 25.0 °F 88% 29.96 in 2.0 mi East 5.8 mph - 0.00 in   Overcast
4:08 AM 28.4 °F 21.2 °F 24.8 °F 86% 29.92 in 2.5 mi East 6.9 mph - N/A   Overcast
4:23 AM 26.6 °F 20.0 °F 24.8 °F 93% 29.93 in 3.0 mi ENE 5.8 mph - N/A   Overcast
4:55 AM 27.0 °F 20.5 °F 24.1 °F 89% 29.96 in 3.0 mi ENE 5.8 mph - N/A   Overcast
5:55 AM 27.0 °F 19.5 °F 24.1 °F 89% 29.95 in 4.0 mi ENE 6.9 mph - N/A   Overcast
6:55 AM 27.0 °F 21.6 °F 24.1 °F 89% 29.96 in 5.0 mi East 4.6 mph - N/A   Overcast
7:55 AM 27.0 °F 20.5 °F 24.1 °F 89% 29.98 in 3.0 mi East 5.8 mph - N/A   Overcast
8:55 AM 28.0 °F 20.8 °F 25.0 °F 88% 29.97 in 3.0 mi East 6.9 mph - N/A   Overcast
9:55 AM 28.0 °F 24.2 °F 25.0 °F 88% 30.00 in 3.0 mi ESE 3.5 mph - N/A   Overcast
10:55 AM 28.9 °F 22.8 °F 26.1 °F 89% 30.00 in 3.0 mi SE 5.8 mph - N/A   Overcast
11:31 AM 30.2 °F 25.4 °F 26.6 °F 86% 29.96 in 3.0 mi SE 4.6 mph - N/A   Overcast
11:55 AM 30.9 °F - 27.0 °F 85% 29.99 in 3.0 mi Calm Calm - N/A   Overcast
12:45 PM 32.0 °F - 28.4 °F 87% 29.95 in 4.0 mi Calm Calm - N/A   Overcast
12:55 PM 32.0 °F - 28.0 °F 85% 29.99 in 4.0 mi Calm Calm - N/A   Overcast
1:55 PM 34.0 °F - 28.9 °F 82% 29.98 in 4.0 mi Calm Calm - N/A   Haze
2:55 PM 35.1 °F 32.2 °F 28.9 °F 78% 29.94 in 4.0 mi NE 3.5 mph - N/A   Haze
3:55 PM 39.0 °F 34.0 °F 28.9 °F 67% 29.94 in 4.0 mi ENE 6.9 mph - N/A   Haze
4:55 PM 39.0 °F 34.8 °F 30.0 °F 70% 29.94 in 6.0 mi Variable 5.8 mph - N/A   Haze
5:55 PM 39.0 °F 33.4 °F 28.9 °F 67% 29.94 in 6.0 mi ENE 8.1 mph - N/A   Haze
6:55 PM 37.0 °F 30.4 °F 28.9 °F 73% 29.95 in 6.0 mi East 9.2 mph - N/A   Haze
7:55 PM 35.1 °F 28.6 °F 28.9 °F 78% 29.98 in 6.0 mi ENE 8.1 mph - N/A   Haze
8:55 PM 35.1 °F 27.9 °F 28.0 °F 76% 29.98 in 6.0 mi East 9.2 mph - N/A   Haze
9:53 PM 33.8 °F 25.8 °F 28.4 °F 81% 29.95 in 6.0 mi East 10.4 mph - N/A   Haze
9:55 PM 34.0 °F 26.0 °F 28.0 °F 79% 29.99 in 6.0 mi East 10.4 mph - N/A   Haze
10:55 PM 33.1 °F 26.1 °F 28.0 °F 82% 30.00 in 5.0 mi East 8.1 mph - N/A   Haze
11:55 PM 33.1 °F 25.5 °F 28.0 °F 82% 30.01 in 5.0 mi East 9.2 mph - N/A   Haze